Location: Unspecified
(49.2170°N, 0.0000°E)
Time: 14:36:13
(UTC+00:00)

Tiros 1 despin weight - Pass Details

Date: 26 January 2021
Orbit: 593 x 642 km, 48.2° (Epoch: 06 March)

Event Time Altitude Azimuth Distance (km) Brightness Sun altitude
Rises 14:03:44 0° 232° (SW) 2,894 ? 17.9°
Reaches altitude 10° 14:06:09 10° 226° (SW) 1,982 ? 17.7°
Maximum altitude 14:10:26 42° 155° (SSE) 873 ? 17.3°
Drops below altitude 10° 14:14:41 10° 85° (E) 1,958 ? 17.0°
Sets 14:17:03 0° 78° (ENE) 2,856 ? 16.8°
